sat.trackr.live / text

‹ back to catalog

STARLINK-5037

NORAD 53896 · 2022-119L

PAYLOAD ACTIVE UNKNOWN

§ Identity

Operator
Country
US
Launch date
2022-09-24
Launch site
AFETR
Launch vehicle
Mass (kg)
RCS (m²)

Purposes: comms

External: N2YO · Heavens-Above · Gunter

§ Orbital elements

Epoch: 2026-09-20T10:25:34.485024Z

Period
93.79 min
Inclination
53.1619°
Eccentricity
0.0001165
Mean motion
15.35389012 rev/d
Perigee alt
459.0 km
Apogee alt
460.6 km
Semi-major
6,837.9 km
B*
8.6279e-5
RAAN
164.3671°
Arg perigee
87.2170°
Mean anomaly
272.8967°
Rev number
22,115

§ Raw data

STARLINK-50371 53896U 22119L   26263.43442691  .00002629  00000+0  86279-4 0  99922 53896  53.1619 164.3671 0001165  87.2170 272.8967 15.35389012221153

JSON: /api/v1/satellites/53896 · /tle

For live sub-satellite position, see the globe view (requires WebGL).

§ Visibility from observer

Set your observer location to see the next 7 days of passes ≥ 10°. The values pass through the URL so the page stays shareable.

No JS? Fill the form by hand. The geolocation button needs JavaScript.